Weather History for KTNB - January, 2014

Change the Weather History Date:

Tuesday, January 21, 2014

  Actual Average (KGEV) Record (KGEV)
Temperature  
Mean Temperature 26 °F -  
Max Temperature 39 °F 40 °F 62 °F (1986)
Min Temperature 14 °F 20 °F -12 °F (1985)
Degree Days  
Heating Degree Days 38    
Moisture  
Dew Point 22 °F    
Average Humidity 77    
Maximum Humidity 96    
Minimum Humidity 57    
Precipitation  
Precipitation 0.00 in - - ()
Sea Level Pressure  
Sea Level Pressure 29.66 in    
Wind  
Wind Speed 10 mph (WNW)    
Max Wind Speed 29 mph    
Max Gust Speed 44 mph    
Visibility 6 miles    
Events Snow    
Averages and records for this station are not official NWS values.
T = Trace of Precipitation, MM = Missing Value Source: NWS Daily Summary

Daily Weather History Graph

Daily Weather History Graph

Search for Another Location

Airport or City:

Trip Planner

Search our weather history database for the weather conditions in past years. The results will help you decide how hot, cold, wet, or windy it might be!

Date:

Astronomy

Jan. 21, 2014 Rise Set
Actual Time 7:34 AM EST 5:41 PM EST
Civil Twilight 7:06 AM EST 6:09 PM EST
Nautical Twilight 6:35 AM EST 6:40 PM EST
Astronomical Twilight 6:05 AM EST 7:11 PM EST
Moon 11:01 PM EST (1/21) 10:14 AM EST (1/21)
Length of Visible Light 11h 02m
Length of Day
10h 06m
Waning Gibbous, 75% of the Moon is Illuminated
Jan 21
Waning Gibbous
Jan 24
Last Quarter
Jan 30
New
Feb 6
First Quarter
Feb 14
Full

Hourly Weather History & Observations

Time (EST) Temp. Windchill Dew Point Humidity Pressure Visibility Wind Dir Wind Speed Gust Speed Precip Events Conditions
12:15 AM 32.0 °F 27.5 °F 23.4 °F 70% 29.80 in 10.0 mi West 4.6 mph - N/A   Clear
12:35 AM 31.6 °F 25.1 °F 23.7 °F 73% 29.79 in 10.0 mi WNW 6.9 mph - N/A   Clear
12:55 AM 32.5 °F 27.1 °F 23.4 °F 69% 29.78 in 10.0 mi WNW 5.8 mph - N/A   Clear
1:15 AM 30.9 °F 26.2 °F 23.5 °F 74% 29.77 in 10.0 mi West 4.6 mph - N/A   Clear
1:35 AM 32.0 °F 24.8 °F 23.9 °F 72% 29.75 in 10.0 mi West 8.1 mph - N/A   Clear
1:55 AM 34.2 °F 30.0 °F 23.7 °F 66% 29.75 in 10.0 mi WNW 4.6 mph - N/A   Clear
2:15 AM 34.2 °F 29.0 °F 23.7 °F 66% 29.74 in 10.0 mi West 5.8 mph - N/A   Clear
2:35 AM 34.3 °F 29.2 °F 23.7 °F 65% 29.73 in 10.0 mi WNW 5.8 mph - N/A   Clear
2:55 AM 34.5 °F 29.4 °F 23.5 °F 64% 29.73 in 10.0 mi West 5.8 mph - N/A   Clear
3:15 AM 33.3 °F 27.1 °F 23.9 °F 69% 29.72 in 10.0 mi West 6.9 mph - N/A   Clear
3:35 AM 33.4 °F 27.3 °F 23.9 °F 68% 29.72 in 10.0 mi West 6.9 mph - N/A   Clear
3:55 AM 33.3 °F 27.9 °F 23.9 °F 69% 29.71 in 10.0 mi West 5.8 mph - N/A   Clear
4:15 AM 33.3 °F 28.9 °F 23.9 °F 69% 29.71 in 10.0 mi West 4.6 mph - N/A   Clear
4:35 AM 33.1 °F 30.0 °F 23.9 °F 69% 29.70 in 10.0 mi West 3.5 mph - N/A   Clear
4:55 AM 32.5 °F 28.1 °F 24.3 °F 72% 29.69 in 10.0 mi SW 4.6 mph - N/A   Clear
5:15 AM 31.8 °F - 24.4 °F 74% 29.68 in 10.0 mi Calm Calm - N/A   Clear
5:35 AM 32.9 °F 29.8 °F 24.3 °F 71% 29.67 in 10.0 mi West 3.5 mph - N/A   Clear
5:55 AM 32.5 °F - 24.4 °F 72% 29.67 in 10.0 mi Calm Calm - N/A   Clear
6:15 AM 32.5 °F - 25.0 °F 74% 29.66 in 10.0 mi Calm Calm - N/A   Scattered Clouds
6:35 AM 31.6 °F - 25.7 °F 79% 29.66 in 10.0 mi Calm Calm - N/A   Mostly Cloudy
6:55 AM 32.0 °F - 25.7 °F 78% 29.65 in 10.0 mi Calm Calm - N/A   Scattered Clouds
7:15 AM 32.7 °F - 26.2 °F 77% 29.64 in 10.0 mi Calm Calm - N/A   Scattered Clouds
7:35 AM 32.7 °F - 25.7 °F 75% 29.64 in 10.0 mi Calm Calm - N/A   Scattered Clouds
7:55 AM 32.9 °F - 26.4 °F 77% 29.64 in 10.0 mi Calm Calm - N/A   Clear
8:15 AM 33.3 °F - 27.0 °F 78% 29.63 in 10.0 mi Calm Calm - N/A   Clear
8:35 AM 33.8 °F - 26.6 °F 75% 29.62 in 10.0 mi Calm Calm - N/A   Clear
8:55 AM 33.4 °F - 27.1 °F 78% 29.63 in 10.0 mi Calm Calm - N/A   Scattered Clouds
9:15 AM 34.2 °F 29.0 °F 27.3 °F 76% 29.62 in 10.0 mi NW 5.8 mph - N/A   Scattered Clouds
9:35 AM 39.2 °F 33.0 °F 25.9 °F 59% 29.61 in 10.0 mi WNW 9.2 mph - N/A   Clear
9:55 AM 39.6 °F 33.5 °F 25.3 °F 57% 29.61 in 10.0 mi WNW 9.2 mph - N/A   Clear
10:15 AM 39.6 °F 33.5 °F 25.5 °F 57% 29.62 in 10.0 mi WNW 9.2 mph 16.1 mph N/A   Clear
10:35 AM 39.2 °F 30.8 °F 25.7 °F 58% 29.61 in 10.0 mi WNW 15.0 mph 18.4 mph N/A   Clear
10:55 AM 38.5 °F 29.9 °F 26.1 °F 61% 29.61 in 10.0 mi WNW 15.0 mph 20.7 mph N/A   Clear
11:15 AM 35.2 °F 26.6 °F 29.8 °F 81% 29.62 in 1.5 mi NW 12.7 mph 21.9 mph N/A Snow Light Snow
11:35 AM 34.9 °F 30.8 °F 30.7 °F 85% 29.61 in 7.0 mi West 4.6 mph - N/A Snow Light Snow
11:55 AM 37.8 °F 30.2 °F 30.0 °F 74% 29.59 in 10.0 mi NW 11.5 mph 16.1 mph N/A   Scattered Clouds
12:15 PM 35.2 °F 26.2 °F 28.6 °F 77% 29.58 in 3.0 mi WNW 13.8 mph 18.4 mph N/A Snow Light Snow
12:35 PM 36.0 °F 25.3 °F 29.7 °F 78% 29.57 in 0.8 mi WNW 19.6 mph 24.2 mph N/A Snow Light Snow
12:55 PM 32.5 °F 22.3 °F 31.6 °F 96% 29.57 in 1.2 mi WNW 15.0 mph 25.3 mph N/A Snow Light Snow
1:15 PM 33.8 °F 22.8 °F 29.7 °F 85% 29.57 in 4.0 mi WNW 18.4 mph 25.3 mph N/A Snow Light Snow
1:35 PM 34.2 °F 24.8 °F 28.6 °F 80% 29.55 in 10.0 mi NW 13.8 mph 23.0 mph N/A   Clear
1:55 PM 31.6 °F 19.0 °F 27.9 °F 86% 29.57 in 0.8 mi WNW 21.9 mph 34.5 mph N/A Snow Light Snow
2:15 PM 30.6 °F 17.3 °F 26.8 °F 86% 29.57 in 0.5 mi WNW 23.0 mph 35.7 mph N/A Snow Light Snow
2:35 PM 30.2 °F 16.2 °F 26.1 °F 85% 29.57 in 2.0 mi WNW 25.3 mph 33.4 mph N/A Snow Light Snow
2:55 PM 29.8 °F 17.0 °F 25.7 °F 85% 29.57 in 1.5 mi WNW 20.7 mph 29.9 mph N/A Snow Light Snow
3:15 PM 29.7 °F 15.5 °F 25.3 °F 84% 29.57 in 1.8 mi WNW 25.3 mph 33.4 mph N/A Snow Light Snow
3:35 PM 29.1 °F 16.4 °F 25.7 °F 87% 29.57 in 1.0 mi WNW 19.6 mph 31.1 mph N/A Snow Light Snow
3:55 PM 28.4 °F 18.0 °F 25.9 °F 90% 29.60 in 0.8 mi NW 12.7 mph 24.2 mph N/A Snow Light Snow
4:15 PM 28.0 °F 18.1 °F 24.3 °F 86% 29.61 in 1.2 mi NW 11.5 mph 20.7 mph N/A Snow Light Snow
4:35 PM 27.1 °F 13.8 °F 23.4 °F 86% 29.62 in 0.8 mi NW 19.6 mph 27.6 mph N/A Snow Light Snow
4:55 PM 25.7 °F 10.8 °F 21.6 °F 84% 29.63 in 1.0 mi WNW 23.0 mph 31.1 mph N/A Snow Light Snow
5:15 PM 24.6 °F 8.8 °F 20.3 °F 84% 29.64 in 1.0 mi WNW 25.3 mph 34.5 mph N/A Snow Light Snow
5:35 PM 23.5 °F 8.0 °F 20.1 °F 87% 29.65 in 0.8 mi WNW 23.0 mph 31.1 mph N/A Snow Light Snow
5:55 PM 23.4 °F 6.8 °F 19.2 °F 84% 29.64 in 1.0 mi WNW 26.5 mph 35.7 mph N/A Snow Light Snow
6:15 PM 23.0 °F 6.6 °F 18.7 °F 84% 29.65 in 2.0 mi WNW 25.3 mph 38.0 mph N/A Snow Light Snow
6:35 PM 23.2 °F 7.1 °F 18.7 °F 83% 29.66 in 3.0 mi NW 24.2 mph 35.7 mph N/A Snow Light Snow
6:55 PM 22.3 °F 4.7 °F 17.6 °F 82% 29.67 in 1.8 mi WNW 28.8 mph 43.7 mph N/A Snow Light Snow
7:15 PM 21.4 °F 4.1 °F 16.7 °F 82% 29.69 in 3.0 mi NW 26.5 mph 35.7 mph N/A Snow Light Snow
7:35 PM 20.5 °F 4.6 °F 15.6 °F 81% 29.70 in 3.0 mi NW 20.7 mph 33.4 mph N/A Snow Light Snow
7:55 PM 19.4 °F 5.0 °F 14.5 °F 81% 29.71 in 5.0 mi WNW 16.1 mph 32.2 mph N/A Snow Light Snow
8:15 PM 18.7 °F 4.0 °F 13.1 °F 79% 29.71 in 10.0 mi NW 16.1 mph 26.5 mph N/A Snow Light Snow
8:35 PM 18.5 °F 3.3 °F 12.7 °F 78% 29.72 in 7.0 mi WNW 17.3 mph 25.3 mph N/A Snow Light Snow
8:55 PM 18.3 °F 3.1 °F 12.6 °F 78% 29.73 in 4.0 mi WNW 17.3 mph 24.2 mph N/A Snow Light Snow
9:15 PM 17.8 °F 0.7 °F 12.2 °F 79% 29.72 in 3.0 mi WNW 21.9 mph 31.1 mph N/A Snow Light Snow
9:35 PM 17.6 °F 1.7 °F 12.2 °F 79% 29.72 in 2.5 mi NW 18.4 mph 39.1 mph N/A Snow Light Snow
9:55 PM 16.7 °F 0.5 °F 12.0 °F 82% 29.72 in 1.8 mi WNW 18.4 mph 38.0 mph N/A Snow Light Snow
10:15 PM 15.8 °F -3.7 °F 10.4 °F 79% 29.72 in 2.0 mi WNW 27.6 mph 41.4 mph N/A Snow Light Snow
10:35 PM 15.3 °F -4.1 °F 10.0 °F 80% 29.72 in 1.5 mi NW 26.5 mph 40.3 mph N/A Snow Light Snow
10:55 PM 15.3 °F 2.0 °F 9.5 °F 78% 29.74 in 2.5 mi WNW 11.5 mph 25.3 mph N/A Snow Light Snow
11:15 PM 15.1 °F -4.0 °F 9.3 °F 78% 29.73 in 3.0 mi NW 25.3 mph 33.4 mph N/A Snow Light Snow
11:35 PM 14.4 °F -4.2 °F 8.4 °F 77% 29.73 in 4.0 mi WNW 23.0 mph 33.4 mph N/A Snow Light Snow
11:55 PM 14.0 °F -4.7 °F 8.1 °F 77% 29.73 in 5.0 mi NW 23.0 mph 28.8 mph N/A Snow Light Snow